Regional Weather Roundup
Issued by NWS Upton, NY

Home | Current Version | Previous Version | Text Only | Print | Product List | Glossary On
Versions: 1 2 3 4 5 6 7 8 9 10 11 12 13 14 15 16 17 18 19 20 21 22 23 24 25 26 27 28 29 30 31 32 33 34 35 36 37 38 39 40 41 42 43 44 45 46 47 48 49 50
000
ASUS41 KOKX 040305
RWROKX

REGIONAL WEATHER ROUNDUP
NATIONAL WEATHER SERVICE NEW YORK NY
1000 PM EST TUE MAR 03 2015

NOTE: "FAIR" INDICATES FEW OR NO CLOUDS BELOW 12,000 FEET WITH NO
SIGNIFICANT WEATHER AND/OR OBSTRUCTIONS TO VISIBILITY.

NYZ071-072-176-178-NJZ106-104-040400-
NEW YORK CITY METRO AREA


CITY           SKY/WX    TMP DP  RH WIND       PRES   REMARKS
CENTRAL PARK   LGT RAIN  35  31  85 MISG      29.96F FOG
LAGUARDIA APRT LGT RAIN  34  31  88 S9        29.94F FOG     WCI  27
KENNEDY INTL   RAIN      35  32  88 S10       29.95F FOG     WCI  27
NEWARK/LIBERTY LGT RAIN  33  32  96 S7        29.95F FOG     WCI  27
BRNX BOT. GARD   N/A     34  32  93 SE3       29.95S
TETERBORO      RAIN      33  30  88 S7        29.93F WCI  27
$$

NYZ177-179-078>081-040400-
LONG ISLAND NEW YORK

CITY           SKY/WX    TMP DP  RH WIND       PRES   REMARKS
FARMINGDALE    RAIN      34  33  96 S5        29.95F FOG     WCI  30
ISLIP          RAIN      34  32  92 SW5       29.94F FOG     WCI  30
SHIRLEY        RAIN      35  33  92 CALM      29.96F FOG
WESTHAMPTON    RAIN      35  33  92 SW3       29.98F FOG
MONTAUK POINT    N/A     36  34  92 S7        29.98F WCI  30
$$

NYZ052-065-067-040400-
HUDSON VALLEY

CITY           SKY/WX    TMP DP  RH WIND       PRES   REMARKS
WHITE PLAINS   LGT RAIN  32  31  96 S8        29.91F FOG     WCI  25
NEWBURGH       NOT AVBL
MONTGOMERY     FRZ RAIN  32  29  88 SW9       29.85F FOG     WCI  24
POUGHKEEPSIE   FRZ RAIN  32  28  85 S8G17     29.88F FOG     WCI  25
ALBANY         FRZ RAIN  27  21  78 S20G30    29.79F WCI  13
$$

NJZ001-105-106-008-010-013-015-019>022-104-040400-
NEW JERSEY

CITY           SKY/WX    TMP DP  RH WIND       PRES   REMARKS
NEWARK/LIBERTY LGT RAIN  33  32  96 S7        29.95F FOG     WCI  27
TETERBORO      RAIN      33  30  88 S7        29.93F WCI  27
CALDWELL       MIX PCPN  32  29  88 SW5       29.94F FOG     WCI  27
MORRISTOWN     LGT RAIN  32  30  93 SW6       29.95F FOG     WCI  26
SOMERVILLE     LGT RAIN  33  31  92 CALM      29.93F FOG
SUSSEX         FRZ RAIN  32  28  85 S10G20    29.87F WCI  24
ANDOVER          N/A     31  29  92 S8        29.89F WCI  23
TRENTON        FRZ RAIN  33  30  88 MISG      29.95F
MILLVILLE      LGT RAIN  33  31  92 SW8       29.96F FOG     WCI  26
ATLANTIC CITY  CLOUDY    35  34  96 SW9       29.95F FOG     WCI  28
WRIGHTSTOWN    LGT RAIN  34  33  99 SW12      29.92F WCI  25
TOMS RIVER     CLOUDY    34  32  93 CALM      29.94F
BELMAR         CLOUDY    34  28  80 CALM      29.93F
$$

PAZ047>061-062-071-040400-
EASTERN PENNSYLVANIA

CITY           SKY/WX    TMP DP  RH WIND       PRES   REMARKS
PHILADELPHIA   FRZ RAIN  33  31  92 SW14      29.96F FOG     WCI  23
ALLENTOWN      FRZ RAIN  33  28  81 S7        29.91F WCI  27
SCRANTON       CLOUDY    29  22  75 S12G22    29.74F WCI  19
$$

CTZ002-004>006-009-010-012-RIZ004-006-007-MAZ004-011-015-040400-
SOUTHERN NEW ENGLAND
 IN CT

CITY           SKY/WX    TMP DP  RH WIND       PRES   REMARKS
BRADLEY INTL   LGTSLEET  28  24  85 S9        29.88F FOG     WCI  19
HARTFORD       FRZ RAIN  29  27  92 S15       29.90F FOG     WCI  18
DANBURY        FRZ RAIN  32  28  85 S9G18     29.91F FOG     WCI  24
WTRBRY/OXFORD  CLOUDY    30  25  80 S13G20    29.89F WCI  20
BRIDGEPORT     FRZ RAIN  30  30 100 S6        29.95F FOG     WCI  24
MERIDEN        FRZ RAIN  30  28  92 S7        29.94F FOG     WCI  23
NEW HAVEN      FRZ RAIN  31  29  92 S7        29.95F FOG     WCI  24
CHESTER        MIX PCPN  32  30  93 S8        29.95F WCI  25
GROTON         MIX PCPN  32  32 100 S9        29.97F FOG     WCI  24
WILLIMANTIC    MIX PCPN  25  22  88 S3        29.95F VSB 1

 IN RI

CITY           SKY/WX    TMP DP  RH WIND       PRES   REMARKS
PROVIDENCE     LGT SNOW  32  30  92 S13       29.97F VSB 1   WCI  22
BLOCK ISLAND   CLOUDY    36  32  87 S14       29.96F WCI  27
WESTERLY       LGT SNOW  33  32  96 S9        29.98F FOG     WCI  25

 IN MA

CITY           SKY/WX    TMP DP  RH WIND       PRES   REMARKS
BOSTON         LGT SNOW  27  25  93 SE12      29.94F VSB 3/4 WCI  16
WORCESTER      LGT SNOW  22  19  89 S15       29.84F VSB 1   WCI   9
WESTFIELD      LGT SNOW  24  20  84 S8        29.88F FOG     WCI  15
PROVINCETOWN   CLOUDY    28  25  86 S13G22    29.99F WCI  18
NANTUCKET      LGT SNOW  33  31  92 S18       30.02F FOG     WCI  22
$$

ANZ330-335-338-340-345-350-353-355-040400-
COASTAL MARINE OBSERVATIONS


STATION/POSITION TIME  SKY/WX   TEMP    WIND        PRES    VSBY  WAVE
                                AIR SEA DIR/SP/G                  HT/PER
                 (UTC)          (F)     (DEG/KT/KT) (MB)    (MI)  (FT/S)
NY HARB ENTRANCE 0300            37 38  200/ 10/ 12 1014.0          2/ 4
4S FIRE IS       0200               32                N/A           2/ 4
20S FIRE ISLAND  0200               36              1016.8          3/ 4
23SW MTP         0300                                 N/A           4/ 5
HUDSON CANYON    NOT AVBL
EXECUTION ROCKS  NOT AVBL
WESTERN LI SOUND NOT AVBL
CENTRAL LI SOUND NOT AVBL
EASTERN LI SOUND NOT AVBL
ROBBINS REEF     0300            33     170/  9/ 10 1012.8
$$


>>>>>>>>>>>>>>>>>>>>>>>>>>>> KEY <<<<<<<<<<<<<<<<<<<<<<<<<<<
>                                                          <
>     SKY/WX - SKY CONDITION/PRESENT WEATHER               <
>     TMP    - TEMPERATURE IN FAHRENHEIT                   <
>     DP     - DEWPOINT IN FAHRENHEIT                      <
>     RH     - RELATIVE HUMIDITY IN PERCENT                <
>     WIND   - DIRECTION AND SPEED IN MPH                  <
>     PRES   - MEAN SEA LEVEL PRESSURE IN INCHES OF HG     <
>     WCI    - WIND CHILL INDEX                            <
>     VSB    - VISIBILITY IN MILES                         <
>     HX     - HEAT INDEX                                  <
>     TC     - TEMPERATURE IN CELSIUS                      <
>     VRB    - VARIABLE WIND DIRECTION                     <
>                                                          <
>>>>>>>>>>>>>>>>>>>>>>>>>>>> KEY <<<<<<<<<<<<<<<<<<<<<<<<<<<




USA.gov is the U.S. government's official web portal to all federal, state and local government web resources and services.